Showing default

BUZZZER-1, 62609

Orbit data source: Space-Track

BUZZZER-1, 62609 is a payload satellite in SSO that was launched on Tue, 14 Jan 2025 UTC via an FALCON 9 launch vehicle from the Air Force Western Test Range (AFWTR). Payload-class satellites include a variety of spacecraft equipped with specific instruments for various scientific and technological missions. These include communications satellites like Starlink; space stations such as the ISS; scientific satellites like the Hubble; Earth observation satellites from companies like Planet Labs, Umbra, and HawkEye 360; GPS; miniature CubeSats for education and research; and military/defense satellites.

Loading next visibility...
Identifier
62609, 2025-009A
Orbit
SSO
Last TLE update
1 day ago
Origin
Manufacturer
Unseen Labs
Mission
Operational Commercial Sigint
Bus & Motor
CUBESAT 6U, Unknown motor
Mass
~10 kg wet, ~10 kg dry
Launch date (UTC)
2025-01-14 (4 months ago)
Launch vehicle
FALCON 9
Launch site
Air Force Western Test Range (AFWTR)
Object type
Payload
Rocket body
Debris
Shape & HBR
Box + 2 Pan, 0.3 m
Radar Cross Section
0.080 m², Medium (>0.1 m² and < 1m²)

Expand to show TLE details & history

TLE from 1 day ago
0 BUZZZER-1
1 62609U 25009A   25139.47311916  .00003481  00000-0  17328-3 0  9991
2 62609  97.4239 219.8106 0006366 271.2898  88.7607 15.18233804 18891
Epoch: 2025-05-19T11:21Z
TLE epoch observation values (Epoch: 2025-05-19T11:21:17.495Z)
Latitude
-0°
Longitude
172.10247°
Altitude
514.174 km
Speed
7.607 km/s
True Right ascension
14h 39m 14s
True Declination
0° 00' 00"
Sunlit
Object was in full shadow at epoch
Visualization orbit readout
Latitude
-25.79463°
Longitude
176.85271°
Altitude
519.193 km
Speed
7.604 km/s
Apparent Right ascension
13h 56m 02s
Apparent Declination
-33° 39' 54"
Sunlit
Object is in full shadow
Visualization observer readout
Local Sidereal Time
00:36:31
Azimuth
285.231° WNW
Elevation
-72.943°
Doppler factor
1
Orbital elements
Apogee altitude
512.531 km
Perigee altitude
503.764 km
Semi-major axis
6,886.284 km
Eccentricity
0.00064
Inclination
97.4239°
RAAN
219.8106°
Arg. of periapsis
271.2898°
True anomaly
Unknown
Mean anomaly
88.7607°
Eccentric anomaly
Unknown
Mean motion
3.79809 °/min
Orbital period
94.78 mins
BSTAR
0.00017328
Loading maneuver chart data...
Loading SW <> Apogee altitude chart data...
Loading historical data...
Loading historical data...
Loading historical data...
Loading historical data...
Loading historical data...
Loading historical data...
Loading historical data...

BUZZZER-1 Visibility forecast

Observer location: undefined°, undefined°

Span
Click to sort rows by Start time (UTC) header in descending order
Start Az.
Max El. time (UTC)
Max El. Az.
Max El.
End time (UTC)
End Az.
6 mins2025-05-20 17:58:47.859Z23.873° NE2025-05-20 18:01:47.859Z124.671° SE39.666°2025-05-20 18:04:47.859Z179.46° S
4 mins2025-05-21 04:38:47.859Z101.232° ESE2025-05-21 04:39:47.859Z78.442° E21.618°2025-05-21 04:42:47.859Z19.39° NNE
4 mins2025-05-21 06:12:47.859Z238.441° WSW2025-05-21 06:13:47.859Z260.075° W19.461°2025-05-21 06:16:47.859Z314.689° NW
|